Weather History for KRMN - March, 2013

Change the Weather History Date:

Friday, March 22, 2013

  Actual Average (KNYG) Record (KNYG)
Temperature  
Mean Temperature 37 °F -  
Max Temperature 50 °F 54 °F 82 °F (2012)
Min Temperature 24 °F 36 °F 25 °F (2002)
Degree Days  
Heating Degree Days 28    
Moisture  
Dew Point 16 °F    
Average Humidity 45    
Maximum Humidity 74    
Minimum Humidity 27    
Precipitation  
Precipitation 0.00 in - - ()
Sea Level Pressure  
Sea Level Pressure 29.98 in    
Wind  
Wind Speed 5 mph (West)    
Max Wind Speed 16 mph    
Max Gust Speed 20 mph    
Visibility 10 miles    
Events      
Averages and records for this station are not official NWS values.
T = Trace of Precipitation, MM = Missing Value Source: NWS Daily Summary

Daily Weather History Graph

Daily Weather History Graph

Search for Another Location

Airport or City:

Trip Planner

Search our weather history database for the weather conditions in past years. The results will help you decide how hot, cold, wet, or windy it might be!

Date:

Astronomy

Mar. 22, 2013 Rise Set
Actual Time 7:09 AM EDT 7:23 PM EDT
Civil Twilight 6:43 AM EDT 7:50 PM EDT
Nautical Twilight 6:12 AM EDT 8:21 PM EDT
Astronomical Twilight 5:41 AM EDT 8:52 PM EDT
Moon 2:52 PM EDT (3/22) 4:05 AM EDT (3/22)
Length of Visible Light 13h 06m
Length of Day
12h 14m
Waxing Gibbous, 77% of the Moon is Illuminated
Mar 22
Waxing Gibbous
Mar 27
Full
Apr 3
Last Quarter
Apr 10
New
Apr 18
First Quarter

Hourly Weather History & Observations

Time (EDT) Temp. Windchill Dew Point Humidity Pressure Visibility Wind Dir Wind Speed Gust Speed Precip Events Conditions
12:15 AM 24.6 °F 18.8 °F 13.6 °F 63% 29.96 in 10.0 mi WNW 4.6 mph - N/A   Clear
12:35 AM 24.1 °F 18.2 °F 14.7 °F 68% 29.96 in 10.0 mi West 4.6 mph - N/A   Clear
12:55 AM 26.1 °F - 13.5 °F 59% 29.96 in 10.0 mi Calm Calm - N/A   Clear
1:15 AM 26.1 °F 20.5 °F 13.8 °F 60% 29.97 in 10.0 mi WNW 4.6 mph - N/A   Clear
1:35 AM 28.0 °F 22.8 °F 12.9 °F 53% 29.97 in 10.0 mi SW 4.6 mph - N/A   Clear
1:55 AM 28.0 °F - 11.7 °F 50% 29.97 in 10.0 mi Calm Calm - N/A   Clear
2:15 AM 25.9 °F 21.7 °F 13.3 °F 59% 29.97 in 10.0 mi West 3.5 mph - N/A   Clear
2:35 AM 25.7 °F 20.1 °F 11.8 °F 56% 29.97 in 10.0 mi West 4.6 mph - N/A   Clear
2:55 AM 27.9 °F 22.6 °F 11.1 °F 50% 29.97 in 10.0 mi West 4.6 mph - N/A   Clear
3:15 AM 27.3 °F 23.4 °F 11.3 °F 51% 29.97 in 10.0 mi West 3.5 mph - N/A   Clear
3:35 AM 26.6 °F 22.6 °F 11.3 °F 53% 29.97 in 10.0 mi West 3.5 mph - N/A   Clear
3:55 AM 27.7 °F 22.4 °F 12.0 °F 52% 29.96 in 10.0 mi WSW 4.6 mph - N/A   Clear
4:15 AM 27.7 °F 22.4 °F 12.2 °F 52% 29.96 in 10.0 mi WSW 4.6 mph - N/A   Clear
4:35 AM 27.5 °F 22.2 °F 11.7 °F 51% 29.96 in 10.0 mi WSW 4.6 mph - N/A   Clear
4:55 AM 27.1 °F 21.8 °F 11.8 °F 53% 29.96 in 10.0 mi West 4.6 mph - N/A   Clear
5:15 AM 27.1 °F 23.2 °F 11.7 °F 52% 29.96 in 10.0 mi WSW 3.5 mph - N/A   Clear
5:35 AM 26.6 °F 21.2 °F 12.0 °F 54% 29.97 in 10.0 mi West 4.6 mph - N/A   Clear
5:55 AM 26.4 °F 20.9 °F 13.1 °F 57% 29.97 in 10.0 mi SW 4.6 mph - N/A   Clear
6:15 AM 27.1 °F - 12.2 °F 53% 29.98 in 10.0 mi Calm Calm - N/A   Clear
6:35 AM 27.1 °F - 12.2 °F 53% 29.99 in 10.0 mi Calm Calm - N/A   Clear
6:55 AM 25.7 °F 20.1 °F 13.1 °F 59% 29.99 in 10.0 mi WSW 4.6 mph - N/A   Clear
7:15 AM 26.4 °F 22.4 °F 12.7 °F 56% 30.00 in 10.0 mi WSW 3.5 mph - N/A   Clear
7:35 AM 26.8 °F 21.4 °F 12.9 °F 56% 30.01 in 10.0 mi West 4.6 mph - N/A   Clear
7:55 AM 28.0 °F 22.8 °F 14.0 °F 56% 30.02 in 10.0 mi West 4.6 mph - N/A   Clear
8:15 AM 30.4 °F 25.6 °F 14.4 °F 51% 30.02 in 10.0 mi WSW 4.6 mph - N/A   Clear
8:35 AM 31.8 °F 27.3 °F 14.7 °F 49% 30.02 in 10.0 mi WSW 4.6 mph - N/A   Clear
8:55 AM 32.9 °F 26.7 °F 14.2 °F 46% 30.03 in 10.0 mi WSW 6.9 mph - N/A   Clear
9:15 AM 34.0 °F 29.8 °F 14.0 °F 44% 30.02 in 10.0 mi WSW 4.6 mph - N/A   Clear
9:35 AM 35.4 °F 31.5 °F 14.5 °F 42% 30.02 in 10.0 mi West 4.6 mph - N/A   Clear
9:55 AM 36.7 °F 28.9 °F 14.7 °F 41% 30.02 in 10.0 mi West 11.5 mph 16.1 mph N/A   Clear
10:15 AM 36.5 °F 29.2 °F 13.8 °F 39% 30.02 in 10.0 mi West 10.4 mph 16.1 mph N/A   Scattered Clouds
10:35 AM 38.3 °F 31.4 °F 15.1 °F 39% 30.03 in 10.0 mi West 10.4 mph - N/A   Mostly Cloudy
10:55 AM 38.1 °F 33.7 °F 14.9 °F 39% 30.02 in 10.0 mi West 5.8 mph - N/A   Mostly Cloudy
11:15 AM 39.4 °F 36.1 °F 16.2 °F 39% 30.02 in 10.0 mi WNW 4.6 mph 9.2 mph N/A   Scattered Clouds
11:35 AM 39.2 °F 32.5 °F 15.6 °F 38% 30.02 in 10.0 mi WSW 10.4 mph - N/A   Clear
11:55 AM 40.1 °F 34.7 °F 15.6 °F 37% 30.01 in 10.0 mi West 8.1 mph - N/A   Scattered Clouds
12:15 PM 40.3 °F 35.5 °F 15.8 °F 37% 30.01 in 10.0 mi SSW 6.9 mph 16.1 mph N/A   Scattered Clouds
12:35 PM 41.4 °F 36.2 °F 16.3 °F 36% 30.01 in 10.0 mi West 8.1 mph - N/A   Scattered Clouds
12:55 PM 41.9 °F 36.9 °F 16.5 °F 36% 30.00 in 10.0 mi SW 8.1 mph 19.6 mph N/A   Clear
1:15 PM 42.6 °F 39.0 °F 17.2 °F 36% 29.99 in 10.0 mi West 5.8 mph 18.4 mph N/A   Clear
1:35 PM 43.9 °F 38.8 °F 17.8 °F 35% 29.98 in 10.0 mi West 9.2 mph - N/A   Clear
1:55 PM 44.8 °F 42.4 °F 17.2 °F 33% 29.97 in 10.0 mi WSW 4.6 mph 17.3 mph N/A   Clear
2:15 PM 45.3 °F 39.3 °F 16.9 °F 32% 29.96 in 10.0 mi West 12.7 mph 18.4 mph N/A   Clear
2:35 PM 46.8 °F - 18.1 °F 32% 29.95 in 10.0 mi SW 12.7 mph 19.6 mph N/A   Clear
2:55 PM 47.3 °F - 18.7 °F 32% 29.94 in 10.0 mi West 5.8 mph - N/A   Clear
3:15 PM 47.3 °F - 17.6 °F 31% 29.93 in 10.0 mi SSW 8.1 mph - N/A   Clear
3:35 PM 48.9 °F - 18.5 °F 30% 29.93 in 10.0 mi WSW 16.1 mph 19.6 mph N/A   Clear
3:55 PM 49.1 °F - 18.3 °F 30% 29.93 in 10.0 mi WSW 6.9 mph 16.1 mph N/A   Clear
4:15 PM 49.3 °F - 18.7 °F 30% 29.93 in 10.0 mi West 8.1 mph - N/A   Clear
4:35 PM 49.8 °F - 18.5 °F 29% 29.92 in 10.0 mi WNW 13.8 mph 19.6 mph N/A   Clear
4:55 PM 50.5 °F - 19.6 °F 30% 29.93 in 10.0 mi NNW 10.4 mph - N/A   Clear
5:15 PM 50.5 °F - 18.3 °F 28% 29.93 in 10.0 mi West 6.9 mph 17.3 mph N/A   Scattered Clouds
5:35 PM 50.5 °F - 18.1 °F 28% 29.93 in 10.0 mi West 8.1 mph 17.3 mph N/A   Scattered Clouds
5:55 PM 50.5 °F - 18.5 °F 28% 29.93 in 10.0 mi NW 10.4 mph - N/A   Clear
6:15 PM 50.0 °F - 16.7 °F 27% 29.93 in 10.0 mi Calm Calm - N/A   Clear
6:35 PM 49.6 °F - 17.8 °F 28% 29.94 in 10.0 mi WNW 6.9 mph - N/A   Clear
6:55 PM 48.2 °F - 18.3 °F 31% 29.95 in 10.0 mi NW 6.9 mph - N/A   Clear
7:15 PM 44.6 °F 40.2 °F 18.9 °F 36% 29.96 in 10.0 mi NNW 8.1 mph - N/A   Clear
7:35 PM 44.4 °F 41.2 °F 18.5 °F 35% 29.97 in 10.0 mi NNW 5.8 mph - N/A   Clear
7:55 PM 42.6 °F 38.4 °F 18.9 °F 39% 29.97 in 10.0 mi NNW 6.9 mph - N/A   Clear
8:15 PM 44.1 °F 40.8 °F 18.3 °F 36% 29.98 in 10.0 mi North 5.8 mph - N/A   Clear
8:35 PM 43.3 °F 40.7 °F 18.7 °F 37% 29.99 in 10.0 mi North 4.6 mph - N/A   Clear
8:55 PM 42.8 °F 39.3 °F 18.9 °F 38% 30.00 in 10.0 mi North 5.8 mph - N/A   Clear
9:15 PM 42.3 °F - 18.5 °F 39% 30.00 in 10.0 mi Calm Calm - N/A   Clear
9:35 PM 37.8 °F - 20.7 °F 50% 30.01 in 10.0 mi Calm Calm - N/A   Clear
9:55 PM 37.4 °F - 20.8 °F 51% 30.02 in 10.0 mi Calm Calm - N/A   Clear
10:15 PM 33.4 °F - 22.1 °F 63% 30.03 in 10.0 mi Calm Calm - N/A   Clear
10:35 PM 31.6 °F - 21.4 °F 66% 30.03 in 10.0 mi Calm Calm - N/A   Clear
10:55 PM 32.0 °F - 21.4 °F 65% 30.03 in 10.0 mi Calm Calm - N/A   Clear
11:15 PM 30.9 °F - 21.7 °F 69% 30.04 in 10.0 mi Calm Calm - N/A   Clear
11:35 PM 29.5 °F - 21.9 °F 73% 30.04 in 10.0 mi Calm Calm - N/A   Clear
11:55 PM 29.3 °F - 21.9 °F 74% 30.05 in 10.0 mi Calm Calm - N/A   Clear